Regional Weather Roundup
Issued by NWS

Home | Current Version | Previous Version | Graphics & Text | Print | Product List | Glossary On
Versions: 1 2 3 4 5 6 7 8 9 10 11 12 13 14 15 16 17 18 19 20 21 22 23 24 25 26 27 28 29 30 31 32 33 34 35 36 37 38 39 40 41 42 43 44 45 46 47 48 49 50
000
ASUS43 KDMX 301603
RWRIA

WEATHER ROUNDUP FOR IOWA
NATIONAL WEATHER SERVICE DES MOINES IA
1100 AM CDT MON MAY 30 2016

NOTE: "FAIR" INDICATES FEW OR NO CLOUDS BELOW 12,000 FEET WITH NO
SIGNIFICANT WEATHER AND/OR OBSTRUCTIONS TO VISIBILITY.

* - THESE STATIONS ARE NOT NWS STATIONS...THUS NOT UNDER NWS
QUALITY CONTROL.  THEY ALSO DO NOT REPORT WEATHER SUCH
AS PRECIPITATION OR FOG.

IAZ001>003-012>014-020>022-031>034-043>046-301700-
   NORTHWEST IOWA

CITY           SKY/WX    TMP DP  RH WIND       PRES   REMARKS
CARROLL *      SUNNY     77  61  57 SE9       30.00F
CHEROKEE *     MOSUNNY   77  54  45 S10       29.99F
DENISON *      SUNNY     77  59  53 VRB7      29.98F
LE MARS *      MOSUNNY   73  55  53 SE12      29.99S
ORANGE CITY *  CLOUDY    73  54  49 SE10G17   29.99F
SHELDON *      CLOUDY    75  57  53 SE17G23   29.98F
SIOUX CITY     MOSUNNY   77  60  55 S9        29.98F
SPENCER        CLOUDY    75  53  46 SE14      30.00F
STORM LAKE *   SUNNY     77  54  44 SE17G24   30.00F
$$

IAZ055>058-069>071-079>083-090>094-301700-
   SOUTHWEST IOWA

CITY           SKY/WX    TMP DP  RH WIND       PRES   REMARKS
ATLANTIC *     SUNNY     79  61  53 S8        30.00F HX  80
AUDUBON *        N/A     79  63  57 S3        30.01F HX  80
CLARINDA *       N/A     81  66  61 MISG      30.02F HX  83
COUNCIL BLFS * SUNNY     79  57  47 S8        30.00S HX  80
CRESTON *      SUNNY     79  66  65 SW12      30.03F HX  81
HARLAN  *      SUNNY     81  57  44 SE9G15    30.02F HX  81
LAMONI         SUNNY     79  66  64 SW8       30.03F HX  81
RED OAK *      SUNNY     79  64  61 S6        30.00F HX  81
SHENANDOAH *   SUNNY     81  63  54 VRB6      30.00F HX  82
$$

IAZ047>049-059>061-072>074-084-301700-
   CENTRAL IOWA

CITY           SKY/WX    TMP DP  RH WIND       PRES   REMARKS
AMES           SUNNY     78  56  46 E16G23    30.01F
ANKENY *       SUNNY     79  68  69 NE6       30.01F HX  81
BOONE *        SUNNY     77  57  50 E15       30.01S
CHARITON *     SUNNY     81  66  61 SW10      30.02F HX  83
DES MOINES     MOSUNNY   80  61  52 CALM      30.01F HX  81
GRINNELL*      SUNNY     79  59  50 NE15      30.05R HX  80
KNOXVILLE *    SUNNY     81  64  57 VRB7      30.01S HX  82
MARSHALLTOWN   SUNNY     75  55  49 E16       30.02F
NEWTON *       SUNNY     79  64  61 E14       30.02F HX  81
PELLA *        SUNNY     81  64  57 SE5       30.03F HX  82
PERRY *          N/A     77  64  65 SE7       30.01F
$$

IAZ004>006-015-016-023>025-035-036-301700-
   NORTH CENTRAL IOWA

CITY           SKY/WX    TMP DP  RH WIND       PRES   REMARKS
ALGONA *       SUNNY     77  54  44 SE12      30.01F
CLARION *      SUNNY     75  59  57 SE14      30.02F
ESTHERVILLE    SUNNY     73  58  59 S13       30.01F
FORT DODGE *   SUNNY     77  54  44 SE14G22   30.01F
MASON CITY     SUNNY     74  58  57 SE14      30.05F
FOREST CITY *  SUNNY     72  55  56 SE10      30.04S
WEBSTER CITY * SUNNY     77  55  47 SE16G22   29.99F
IOWA FALLS *     N/A     75  57  53 E13       30.03F
$$

IAZ007>011-017>019-026>030-037>042-050>054-066-301700-
   NORTHEAST IOWA

CITY           SKY/WX    TMP DP  RH WIND       PRES   REMARKS
CEDAR RAPIDS   PTSUNNY   74  62  66 NE7       30.07R
CHARLES CITY * SUNNY     73  55  53 SE9       30.05S
CLINTON *      MOSUNNY   78  59  51 E5        30.06S
DECORAH *      PTSUNNY   75  50  41 S8        30.04F
DUBUQUE        MOSUNNY   77  53  43 N10       30.09R
MONTICELLO *   DRIZZLE   70  57  64 N6        30.08R
OELWEIN *      CLOUDY    72  57  60 SE18      30.03F
WATERLOO       CLOUDY    70  58  65 SE13G18   30.02F
$$

IAZ064-065-067-068-078-301700-
   EAST CENTRAL IOWA

CITY           SKY/WX    TMP DP  RH WIND       PRES   REMARKS
DAVENPORT      CLOUDY    78  61  55 SW12      30.08R HX  80
IOWA CITY      PTSUNNY   76  62  62 NE7       30.08S
MT. PLEASANT * CLOUDY    73  64  73 SE3       30.05F
MUSCATINE *    CLOUDY    75  63  64 VRB3      30.05F
QUAD CITIES    CLOUDY    76  63  64 W13       30.07R
$$

IAZ062-063-075>077-085>089-095>099-301700-
   SOUTHEAST IOWA

CITY           SKY/WX    TMP DP  RH WIND       PRES   REMARKS
BURLINGTON     CLOUDY    75  60  59 N5        30.06F
FAIRFIELD *      N/A    N/A N/A N/A MISG        N/A
FORT MADISON * PTSUNNY   79  63  57 E5        30.06F HAZE    HX  80
KEOKUK *       SUNNY     79  66  65 E5        30.05F HX  81
OSKALOOSA *      N/A     78  65  63 S8        30.04F HX  80
OTTUMWA        SUNNY     77  67  71 E10       30.03F
WASHINGTON *   SUNNY     73 -35   1 S5        30.06S
$$

ABBREVIATIONS USED IN REMARKS
   TC - TEMPERATURES IN CELSIUS
  WCI - WIND CHILL INDEX
   HX - HEAT INDEX
  VSB - VISIBILITY
$$





USA.gov is the U.S. government's official web portal to all federal, state and local government web resources and services.